| time (UTC) | temp C | wind direction | speed KPH | gust KPH | rain 1hr cm | rain 24hr cm | rain mn cm | humidity % | barometer mb |
| 20260509043241 | 13 | 350 | 0.0 | 0.0 | 0.00 | 0.00 | 0.00 | 90 | 1014.8 |
| 20260509042737 | 13 | 350 | 0.0 | 0.0 | 0.00 | 0.00 | 0.00 | 90 | 1014.9 |
| 20260509042234 | 13 | 350 | 0.0 | 0.0 | 0.00 | 0.00 | 0.00 | 90 | 1014.8 |
| 20260509041731 | 13 | 350 | 0.0 | 0.0 | 0.00 | 0.00 | 0.00 | 89 | 1015.3 |
| 20260509041228 | 13 | 350 | 0.0 | 0.0 | 0.00 | 0.00 | 0.00 | 89 | 1014.9 |
| 20260509040726 | 13 | 350 | 0.0 | 0.0 | 0.00 | 0.00 | 0.00 | 89 | 1015.0 |
| 20260509040223 | 13 | 350 | 0.0 | 0.0 | 0.00 | 0.00 | 0.00 | 89 | 1014.8 |
| 20260509035719 | 13 | 350 | 0.0 | 0.0 | 0.00 | 0.00 | 0.00 | 89 | 1014.8 |
| 20260509035216 | 13 | 350 | 0.0 | 0.0 | 0.00 | 0.00 | 0.00 | 89 | 1015.1 |
| 20260509034713 | 13 | 350 | 0.0 | 0.0 | 0.00 | 0.00 | 0.00 | 89 | 1015.0 |
| 20260509034211 | 13 | 350 | 0.0 | 0.0 | 0.00 | 0.00 | 0.00 | 88 | 1015.0 |
| 20260509033708 | 13 | 350 | 0.0 | 0.0 | 0.00 | 0.00 | 0.00 | 88 | 1015.4 |
| 20260509033205 | 13 | 350 | 0.0 | 0.0 | 0.00 | 0.00 | 0.00 | 88 | 1015.3 |
| 20260509032702 | 13 | 350 | 0.0 | 0.0 | 0.00 | 0.00 | 0.00 | 88 | 1015.3 |
| 20260509032159 | 13 | 350 | 0.0 | 1.6 | 0.00 | 0.00 | 0.00 | 88 | 1015.1 |
| 20260509031656 | 13 | 352 | 0.0 | 0.0 | 0.00 | 0.00 | 0.00 | 88 | 1015.2 |
| 20260509031154 | 13 | 352 | 0.0 | 0.0 | 0.00 | 0.00 | 0.00 | 88 | 1015.3 |
| 20260509030652 | 13 | 352 | 0.0 | 0.0 | 0.00 | 0.00 | 0.00 | 87 | 1015.0 |
| 20260509030149 | 13 | 20 | 0.0 | 0.0 | 0.00 | 0.00 | 0.00 | 87 | 1015.3 |
| 20260509025645 | 13 | 20 | 0.0 | 0.0 | 0.00 | 0.00 | 0.00 | 87 | 1015.0 |
| 20260509025141 | 13 | 26 | 0.0 | 0.0 | 0.00 | 0.00 | 0.00 | 87 | 1015.4 |
| 20260509024636 | 13 | 28 | 0.0 | 0.0 | 0.00 | 0.00 | 0.00 | 86 | 1015.2 |
| 20260509024132 | 13 | 31 | 0.0 | 0.0 | 0.00 | 0.00 | 0.00 | 86 | 1015.3 |
| 20260509023631 | 13 | 32 | 0.0 | 0.0 | 0.00 | 0.00 | 0.00 | 86 | 1015.1 |
| 20260509023127 | 14 | 32 | 0.0 | 0.0 | 0.00 | 0.00 | 0.00 | 85 | 1015.6 |
| 20260509022623 | 14 | 22 | 0.0 | 0.0 | 0.00 | 0.00 | 0.00 | 85 | 1015.4 |
| 20260509022122 | 15 | 9 | 0.0 | 0.0 | 0.00 | 0.00 | 0.00 | 85 | 1015.5 |
| 20260509021618 | 15 | 9 | 0.0 | 0.0 | 0.00 | 0.00 | 0.00 | 84 | 1015.5 |
| 20260509021115 | 15 | 31 | 0.0 | 0.0 | 0.00 | 0.00 | 0.00 | 84 | 1015.4 |
| 20260509020613 | 15 | 53 | 0.0 | 0.0 | 0.00 | 0.00 | 0.00 | 84 | 1015.3 |
| 20260509020110 | 15 | 53 | 0.0 | 0.0 | 0.00 | 0.00 | 0.00 | 83 | 1015.6 |
| 20260509015609 | 15 | 53 | 0.0 | 0.0 | 0.00 | 0.00 | 0.00 | 82 | 1015.5 |
| 20260509015106 | 15 | 64 | 0.0 | 0.0 | 0.00 | 0.00 | 0.00 | 81 | 1015.4 |
| 20260509014602 | 15 | 64 | 0.0 | 0.0 | 0.00 | 0.00 | 0.00 | 80 | 1015.2 |
| 20260509014059 | 16 | 99 | 0.0 | 0.0 | 0.00 | 0.00 | 0.00 | 79 | 1015.2 |
| 20260509013556 | 16 | 110 | 0.0 | 0.0 | 0.00 | 0.00 | 0.00 | 79 | 1015.1 |
| 20260509013051 | 16 | 132 | 1.6 | 1.6 | 0.00 | 0.00 | 0.00 | 79 | 1015.1 |
| 20260509012548 | 16 | 131 | 3.2 | 3.2 | 0.00 | 0.00 | 0.00 | 78 | 1014.9 |
| 20260509012045 | 16 | 138 | 0.0 | 0.0 | 0.00 | 0.00 | 0.00 | 78 | 1014.7 |
| 20260509011543 | 16 | 134 | 4.8 | 4.8 | 0.00 | 0.00 | 0.00 | 76 | 1014.6 |
| 20260509011040 | 16 | 129 | 3.2 | 3.2 | 0.00 | 0.00 | 0.00 | 79 | 1014.5 |
| 20260509010538 | 16 | 127 | 3.2 | 3.2 | 0.00 | 0.00 | 0.00 | 79 | 1014.7 |
| 20260509010034 | 16 | 128 | 4.8 | 4.8 | 0.00 | 0.00 | 0.00 | 78 | 1014.6 |
| 20260509005532 | 16 | 132 | 3.2 | 3.2 | 0.00 | 0.00 | 0.00 | 79 | 1014.4 |
| 20260509005032 | 16 | 116 | 3.2 | 3.2 | 0.00 | 0.00 | 0.00 | 80 | 1014.6 |
| 20260509004530 | 17 | 89 | 1.6 | 1.6 | 0.00 | 0.00 | 0.00 | 79 | 1014.5 |
| 20260509004026 | 16 | 115 | 3.2 | 3.2 | 0.00 | 0.00 | 0.00 | 79 | 1014.4 |
| 20260509003525 | 17 | 105 | 0.0 | 0.0 | 0.00 | 0.00 | 0.00 | 79 | 1014.3 |
| 20260509003022 | 17 | 162 | 1.6 | 1.6 | 0.00 | 0.00 | 0.00 | 77 | 1014.4 |
| 20260509002519 | 17 | 151 | 1.6 | 3.2 | 0.00 | 0.00 | 0.00 | 77 | 1014.0 |
| 20260509002016 | 17 | 177 | 0.0 | 0.0 | 0.00 | 0.00 | 0.00 | 76 | 1014.3 |
| 20260509001514 | 17 | 171 | 1.6 | 3.2 | 0.00 | 0.00 | 0.00 | 75 | 1014.3 |
| 20260509001010 | 17 | 162 | 0.0 | 1.6 | 0.00 | 0.00 | 0.00 | 75 | 1014.2 |
| 20260509000508 | 17 | 170 | 0.0 | 1.6 | 0.00 | 0.00 | 0.00 | 75 | 1014.3 |
| 20260509000003 | 17 | 164 | 3.2 | 4.8 | 0.00 | 0.00 | 0.00 | 74 | 1014.1 |
| 20260508235502 | 18 | 212 | 3.2 | 3.2 | 0.00 | 0.00 | 0.00 | 74 | 1014.3 |
| 20260508234958 | 18 | 159 | 1.6 | 3.2 | 0.00 | 0.00 | 0.00 | 75 | 1013.9 |
| 20260508234455 | 18 | 167 | 1.6 | 3.2 | 0.00 | 0.00 | 0.00 | 74 | 1013.9 |
| 20260508233952 | 18 | 158 | 3.2 | 3.2 | 0.00 | 0.00 | 0.00 | 74 | 1013.9 |
| 20260508233452 | 18 | 279 | 1.6 | 3.2 | 0.00 | 0.00 | 0.00 | 74 | 1014.1 |
| 20260508232948 | 18 | 161 | 3.2 | 3.2 | 0.00 | 0.00 | 0.00 | 74 | 1014.0 |
| 20260508232445 | 18 | 161 | 1.6 | 1.6 | 0.00 | 0.00 | 0.00 | 73 | 1013.9 |
| 20260508231942 | 18 | 145 | 1.6 | 1.6 | 0.00 | 0.00 | 0.00 | 73 | 1013.8 |
| 20260508231440 | 18 | 138 | 3.2 | 3.2 | 0.00 | 0.00 | 0.00 | 75 | 1013.8 |
| 20260508230936 | 17 | 233 | 0.0 | 0.0 | 0.00 | 0.00 | 0.00 | 74 | 1013.5 |
| 20260508230433 | 17 | 29 | 0.0 | 0.0 | 0.00 | 0.00 | 0.00 | 72 | 1013.4 |
| 20260508225930 | 17 | 350 | 0.0 | 0.0 | 0.00 | 0.00 | 0.00 | 71 | 1013.5 |
| 20260508225427 | 17 | 38 | 0.0 | 0.0 | 0.00 | 0.00 | 0.00 | 71 | 1013.4 |
| 20260508224924 | 17 | 40 | 0.0 | 1.6 | 0.00 | 0.00 | 0.00 | 70 | 1013.6 |
| 20260508224422 | 17 | 22 | 0.0 | 0.0 | 0.00 | 0.00 | 0.00 | 70 | 1013.7 |
| 20260508223919 | 17 | 39 | 0.0 | 0.0 | 0.00 | 0.00 | 0.00 | 69 | 1013.5 |
| 20260508223417 | 17 | 52 | 0.0 | 0.0 | 0.00 | 0.00 | 0.00 | 70 | 1013.4 |
| 20260508222913 | 17 | 51 | 0.0 | 1.6 | 0.00 | 0.00 | 0.00 | 69 | 1013.5 |
| 20260508222411 | 17 | 32 | 0.0 | 0.0 | 0.00 | 0.00 | 0.00 | 67 | 1013.6 |
| 20260508221907 | 18 | 34 | 1.6 | 1.6 | 0.00 | 0.00 | 0.00 | 68 | 1013.4 |
| 20260508221403 | 18 | 358 | 1.6 | 1.6 | 0.00 | 0.00 | 0.00 | 68 | 1013.5 |
| 20260508220859 | 18 | 49 | 1.6 | 1.6 | 0.00 | 0.00 | 0.00 | 66 | 1013.5 |
| 20260508220356 | 18 | 14 | 0.0 | 1.6 | 0.00 | 0.00 | 0.00 | 64 | 1013.6 |
| 20260508215853 | 18 | 48 | 0.0 | 1.6 | 0.00 | 0.00 | 0.00 | 65 | 1013.6 |
| 20260508215349 | 18 | 37 | 1.6 | 1.6 | 0.00 | 0.00 | 0.00 | 66 | 1013.8 |
| 20260508214846 | 18 | 88 | 1.6 | 1.6 | 0.00 | 0.00 | 0.00 | 64 | 1014.1 |
| 20260508214344 | 18 | 12 | 1.6 | 1.6 | 0.00 | 0.00 | 0.00 | 62 | 1014.1 |
| 20260508213840 | 18 | 76 | 1.6 | 3.2 | 0.00 | 0.00 | 0.00 | 63 | 1013.9 |
| 20260508213337 | 18 | 39 | 0.0 | 0.0 | 0.00 | 0.00 | 0.00 | 62 | 1013.9 |
| 20260508212833 | 19 | 19 | 0.0 | 0.0 | 0.00 | 0.00 | 0.00 | 64 | 1013.9 |
| 20260508212329 | 19 | 38 | 1.6 | 1.6 | 0.00 | 0.00 | 0.00 | 58 | 1014.0 |
| 20260508211825 | 19 | 113 | 0.0 | 1.6 | 0.00 | 0.00 | 0.00 | 57 | 1013.9 |
| 20260508211321 | 18 | 283 | 1.6 | 1.6 | 0.00 | 0.00 | 0.00 | 59 | 1013.8 |
| 20260508210819 | 19 | 132 | 3.2 | 3.2 | 0.00 | 0.00 | 0.00 | 57 | 1013.7 |
| 20260508210315 | 19 | 161 | 0.0 | 0.0 | 0.00 | 0.00 | 0.00 | 55 | 1013.7 |
| 20260508205812 | 19 | 121 | 1.6 | 3.2 | 0.00 | 0.00 | 0.00 | 58 | 1013.7 |
| 20260508205308 | 20 | 122 | 3.2 | 3.2 | 0.00 | 0.00 | 0.00 | 55 | 1013.6 |
| 20260508204805 | 20 | 84 | 3.2 | 3.2 | 0.00 | 0.00 | 0.00 | 56 | 1013.7 |
| 20260508204302 | 20 | 99 | 0.0 | 0.0 | 0.00 | 0.00 | 0.00 | 54 | 1013.8 |
| 20260508203758 | 20 | 99 | 3.2 | 3.2 | 0.00 | 0.00 | 0.00 | 53 | 1013.9 |
| 20260508203254 | 20 | 89 | 1.6 | 3.2 | 0.00 | 0.00 | 0.00 | 54 | 1013.6 |
| 20260508202750 | 20 | 113 | 1.6 | 1.6 | 0.00 | 0.00 | 0.00 | 53 | 1014.1 |
| 20260508202247 | 20 | 126 | 3.2 | 3.2 | 0.00 | 0.00 | 0.00 | 53 | 1014.1 |
| 20260508201745 | 20 | 138 | 3.2 | 3.2 | 0.00 | 0.00 | 0.00 | 53 | 1014.2 |
| 20260508201241 | 20 | 108 | 3.2 | 3.2 | 0.00 | 0.00 | 0.00 | 52 | 1014.3 |
| 20260508200738 | 20 | 121 | 1.6 | 1.6 | 0.00 | 0.00 | 0.00 | 53 | 1014.4 |
| 20260508200234 | 20 | 116 | 3.2 | 4.8 | 0.00 | 0.00 | 0.00 | 55 | 1014.4 |
| 20260508195730 | 20 | 94 | 3.2 | 3.2 | 0.00 | 0.00 | 0.00 | 53 | 1014.4 |
| 20260508195227 | 21 | 79 | 0.0 | 1.6 | 0.00 | 0.00 | 0.00 | 52 | 1014.4 |
| 20260508194724 | 20 | 104 | 3.2 | 3.2 | 0.00 | 0.00 | 0.00 | 56 | 1014.6 |
| 20260508194221 | 20 | 75 | 3.2 | 3.2 | 0.00 | 0.00 | 0.00 | 55 | 1014.4 |
| 20260508193717 | 20 | 97 | 1.6 | 3.2 | 0.00 | 0.00 | 0.00 | 56 | 1014.8 |
| 20260508193214 | 20 | 97 | 3.2 | 3.2 | 0.00 | 0.00 | 0.00 | 57 | 1014.8 |
| 20260508192711 | 20 | 73 | 1.6 | 1.6 | 0.00 | 0.00 | 0.00 | 57 | 1015.0 |
| 20260508192208 | 20 | 135 | 3.2 | 3.2 | 0.00 | 0.00 | 0.00 | 62 | 1014.9 |
| 20260508191705 | 20 | 129 | 4.8 | 4.8 | 0.00 | 0.00 | 0.00 | 59 | 1015.0 |
| 20260508191202 | 19 | 96 | 3.2 | 3.2 | 0.00 | 0.00 | 0.00 | 56 | 1014.8 |
| 20260508190659 | 19 | 82 | 3.2 | 3.2 | 0.00 | 0.00 | 0.00 | 58 | 1015.3 |
| 20260508190155 | 20 | 78 | 1.6 | 3.2 | 0.00 | 0.00 | 0.00 | 54 | 1015.2 |
| 20260508185652 | 20 | 136 | 1.6 | 1.6 | 0.00 | 0.00 | 0.00 | 57 | 1015.3 |
| 20260508185149 | 20 | 114 | 3.2 | 3.2 | 0.00 | 0.00 | 0.00 | 60 | 1015.3 |
| 20260508184646 | 20 | 92 | 3.2 | 3.2 | 0.00 | 0.00 | 0.00 | 60 | 1015.3 |
| 20260508184144 | 20 | 96 | 1.6 | 3.2 | 0.00 | 0.00 | 0.00 | 62 | 1015.3 |
| 20260508183641 | 19 | 145 | 4.8 | 8.0 | 0.00 | 0.00 | 0.00 | 61 | 1015.5 |
| 20260508183136 | 18 | 116 | 3.2 | 3.2 | 0.00 | 0.00 | 0.00 | 63 | 1015.5 |
| 20260508182633 | 19 | 139 | 3.2 | 3.2 | 0.00 | 0.00 | 0.00 | 61 | 1015.5 |
| 20260508182130 | 19 | 117 | 4.8 | 4.8 | 0.00 | 0.00 | 0.00 | 60 | 1015.7 |
| 20260508181625 | 19 | 91 | 4.8 | 4.8 | 0.00 | 0.00 | 0.00 | 61 | 1015.6 |
| 20260508181123 | 18 | 125 | 4.8 | 8.0 | 0.00 | 0.00 | 0.00 | 59 | 1015.7 |
| 20260508180619 | 20 | 110 | 1.6 | 3.2 | 0.00 | 0.00 | 0.00 | 60 | 1015.9 |
| 20260508180115 | 19 | 96 | 3.2 | 3.2 | 0.00 | 0.00 | 0.00 | 60 | 1015.4 |
| 20260508175612 | 18 | 114 | 4.8 | 4.8 | 0.00 | 0.00 | 0.00 | 60 | 1015.7 |
| 20260508175109 | 19 | 118 | 1.6 | 1.6 | 0.00 | 0.00 | 0.00 | 61 | 1015.7 |
| 20260508174607 | 19 | 131 | 4.8 | 4.8 | 0.00 | 0.00 | 0.00 | 59 | 1015.6 |
| 20260508174104 | 20 | 99 | 3.2 | 3.2 | 0.00 | 0.00 | 0.00 | 60 | 1015.8 |
| 20260508173601 | 20 | 127 | 3.2 | 3.2 | 0.00 | 0.00 | 0.00 | 62 | 1015.7 |
| 20260508173056 | 19 | 114 | 1.6 | 3.2 | 0.00 | 0.00 | 0.00 | 63 | 1015.8 |
| 20260508172554 | 19 | 94 | 3.2 | 3.2 | 0.00 | 0.00 | 0.00 | 61 | 1016.0 |
| 20260508172050 | 19 | 90 | 1.6 | 4.8 | 0.00 | 0.00 | 0.00 | 64 | 1015.7 |
| 20260508171547 | 18 | 82 | 3.2 | 3.2 | 0.00 | 0.00 | 0.00 | 65 | 1016.0 |
| 20260508171043 | 18 | 74 | 3.2 | 4.8 | 0.00 | 0.00 | 0.00 | 63 | 1015.9 |
| 20260508170541 | 18 | 75 | 3.2 | 3.2 | 0.00 | 0.00 | 0.00 | 66 | 1015.9 |
| 20260508170038 | 18 | 76 | 4.8 | 4.8 | 0.00 | 0.00 | 0.00 | 65 | 1015.9 |
| 20260508165535 | 18 | 111 | 4.8 | 4.8 | 0.00 | 0.00 | 0.00 | 67 | 1016.0 |
| 20260508165032 | 18 | 121 | 4.8 | 4.8 | 0.00 | 0.00 | 0.00 | 67 | 1016.3 |
| 20260508164528 | 18 | 118 | 3.2 | 3.2 | 0.00 | 0.00 | 0.00 | 63 | 1016.1 |
| 20260508164025 | 18 | 102 | 4.8 | 4.8 | 0.00 | 0.00 | 0.00 | 67 | 1016.1 |
| 20260508163523 | 18 | 91 | 4.8 | 4.8 | 0.00 | 0.00 | 0.00 | 65 | 1016.3 |
| 20260508163019 | 19 | 99 | 3.2 | 3.2 | 0.00 | 0.00 | 0.00 | 67 | 1016.3 |
| 20260508162516 | 18 | 91 | 3.2 | 3.2 | 0.00 | 0.00 | 0.00 | 65 | 1016.5 |
| 20260508162013 | 18 | 102 | 4.8 | 4.8 | 0.00 | 0.00 | 0.00 | 66 | 1016.3 |
| 20260508161510 | 18 | 90 | 3.2 | 3.2 | 0.00 | 0.00 | 0.00 | 62 | 1016.3 |
| 20260508161007 | 18 | 101 | 3.2 | 3.2 | 0.00 | 0.00 | 0.00 | 65 | 1016.6 |
| 20260508160506 | 18 | 80 | 3.2 | 3.2 | 0.00 | 0.00 | 0.00 | 64 | 1016.5 |
| 20260508160002 | 18 | 79 | 1.6 | 3.2 | 0.00 | 0.00 | 0.00 | 65 | 1016.7 |
| 20260508155459 | 18 | 136 | 4.8 | 4.8 | 0.00 | 0.00 | 0.00 | 64 | 1016.3 |
| 20260508154956 | 18 | 96 | 4.8 | 4.8 | 0.00 | 0.00 | 0.00 | 65 | 1016.5 |
| 20260508154454 | 18 | 82 | 3.2 | 3.2 | 0.00 | 0.00 | 0.00 | 63 | 1016.4 |
| 20260508153950 | 18 | 93 | 3.2 | 3.2 | 0.00 | 0.00 | 0.00 | 62 | 1016.7 |
| 20260508153447 | 18 | 94 | 3.2 | 3.2 | 0.00 | 0.00 | 0.00 | 60 | 1016.6 |
| 20260508152943 | 18 | 79 | 1.6 | 1.6 | 0.00 | 0.00 | 0.00 | 62 | 1016.4 |
| 20260508152440 | 18 | 104 | 3.2 | 3.2 | 0.00 | 0.00 | 0.00 | 61 | 1016.5 |
| 20260508151936 | 17 | 105 | 3.2 | 4.8 | 0.00 | 0.00 | 0.00 | 67 | 1016.5 |
| 20260508151433 | 18 | 109 | 6.4 | 8.0 | 0.00 | 0.00 | 0.00 | 60 | 1016.3 |
| 20260508150929 | 18 | 113 | 4.8 | 8.0 | 0.00 | 0.00 | 0.00 | 60 | 1016.1 |
| 20260508150426 | 19 | 88 | 1.6 | 1.6 | 0.00 | 0.00 | 0.00 | 62 | 1016.3 |
| 20260508145922 | 19 | 12 | 0.0 | 0.0 | 0.00 | 0.00 | 0.00 | 61 | 1016.2 |
| 20260508145419 | 18 | 5 | 0.0 | 0.0 | 0.00 | 0.00 | 0.00 | 63 | 1016.0 |
| 20260508144915 | 18 | 53 | 1.6 | 1.6 | 0.00 | 0.00 | 0.00 | 59 | 1016.0 |
| 20260508144413 | 17 | 31 | 1.6 | 1.6 | 0.00 | 0.00 | 0.00 | 63 | 1016.1 |
| 20260508143911 | 18 | 352 | 6.4 | 9.7 | 0.00 | 0.00 | 0.00 | 59 | 1016.2 |
| 20260508143408 | 18 | 33 | 0.0 | 1.6 | 0.00 | 0.00 | 0.00 | 62 | 1016.1 |
| 20260508142904 | 17 | 8 | 1.6 | 3.2 | 0.00 | 0.00 | 0.00 | 65 | 1016.3 |
| 20260508142401 | 17 | 68 | 0.0 | 1.6 | 0.00 | 0.00 | 0.00 | 65 | 1016.2 |
| 20260508141857 | 17 | 31 | 3.2 | 3.2 | 0.00 | 0.00 | 0.00 | 65 | 1016.3 |
| 20260508141354 | 17 | 0 | 4.8 | 4.8 | 0.00 | 0.00 | 0.00 | 65 | 1016.0 |
| 20260508140852 | 17 | 350 | 4.8 | 4.8 | 0.00 | 0.00 | 0.00 | 67 | 1016.0 |
| 20260508140349 | 16 | 25 | 0.0 | 1.6 | 0.00 | 0.00 | 0.00 | 71 | 1016.0 |
| 20260508135844 | 16 | 23 | 3.2 | 3.2 | 0.00 | 0.00 | 0.00 | 70 | 1016.0 |
| 20260508135341 | 16 | 49 | 1.6 | 3.2 | 0.00 | 0.00 | 0.00 | 71 | 1015.8 |
| 20260508134837 | 16 | 18 | 4.8 | 4.8 | 0.00 | 0.00 | 0.00 | 69 | 1015.9 |
| 20260508134334 | 15 | 11 | 6.4 | 9.7 | 0.00 | 0.00 | 0.00 | 70 | 1015.9 |
| 20260508133831 | 15 | 13 | 1.6 | 1.6 | 0.00 | 0.00 | 0.00 | 73 | 1015.8 |
| 20260508133329 | 15 | 17 | 1.6 | 1.6 | 0.00 | 0.00 | 0.00 | 75 | 1016.0 |
| 20260508132826 | 15 | 349 | 4.8 | 4.8 | 0.00 | 0.00 | 0.00 | 75 | 1015.8 |
| 20260508132323 | 15 | 1 | 4.8 | 4.8 | 0.00 | 0.00 | 0.00 | 77 | 1015.8 |
| 20260508131820 | 14 | 17 | 0.0 | 1.6 | 0.00 | 0.00 | 0.00 | 80 | 1015.7 |
| 20260508131316 | 13 | 356 | 3.2 | 3.2 | 0.00 | 0.00 | 0.00 | 83 | 1015.5 |
| 20260508130812 | 13 | 356 | 3.2 | 3.2 | 0.00 | 0.00 | 0.00 | 88 | 1015.6 |
| 20260508130309 | 13 | 32 | 3.2 | 4.8 | 0.00 | 0.00 | 0.00 | 92 | 1015.3 |
| 20260508125806 | 13 | 15 | 1.6 | 3.2 | 0.00 | 0.00 | 0.00 | 95 | 1015.4 |
| 20260508125305 | 12 | 349 | 0.0 | 0.0 | 0.00 | 0.00 | 0.00 | 96 | 1015.4 |
| 20260508124800 | 12 | 18 | 0.0 | 0.0 | 0.00 | 0.00 | 0.00 | 96 | 1015.3 |
| 20260508124256 | 12 | 8 | 0.0 | 0.0 | 0.00 | 0.00 | 0.00 | 97 | 1015.2 |
| 20260508123754 | 12 | 37 | 1.6 | 1.6 | 0.00 | 0.00 | 0.00 | 97 | 1015.2 |
| 20260508123253 | 12 | 20 | 1.6 | 3.2 | 0.00 | 0.00 | 0.00 | 97 | 1015.1 |
| 20260508122748 | 11 | 39 | 0.0 | 1.6 | 0.00 | 0.00 | 0.00 | 97 | 1015.5 |
| 20260508122245 | 11 | 51 | 1.6 | 3.2 | 0.00 | 0.00 | 0.00 | 97 | 1015.1 |
| 20260508121743 | 11 | 61 | 0.0 | 0.0 | 0.00 | 0.00 | 0.00 | 97 | 1015.0 |
| 20260508121241 | 11 | 8 | 0.0 | 1.6 | 0.00 | 0.00 | 0.00 | 97 | 1014.9 |
| 20260508120738 | 11 | 311 | 0.0 | 0.0 | 0.00 | 0.00 | 0.00 | 97 | 1015.1 |
| 20260508120237 | 11 | 25 | 0.0 | 0.0 | 0.00 | 0.00 | 0.00 | 97 | 1014.8 |
| 20260508115734 | 11 | 5 | 0.0 | 0.0 | 0.00 | 0.00 | 0.00 | 97 | 1015.0 |
| 20260508115231 | 10 | 10 | 0.0 | 0.0 | 0.00 | 0.00 | 0.00 | 97 | 1014.9 |
| 20260508114727 | 10 | 39 | 0.0 | 0.0 | 0.00 | 0.00 | 0.00 | 97 | 1014.6 |
| 20260508114224 | 10 | 26 | 0.0 | 0.0 | 0.00 | 0.00 | 0.00 | 97 | 1014.7 |
| 20260508113721 | 10 | 13 | 0.0 | 0.0 | 0.00 | 0.00 | 0.00 | 97 | 1014.7 |
| 20260508113219 | 10 | 0 | 0.0 | 0.0 | 0.00 | 0.00 | 0.00 | 97 | 1014.6 |
| 20260508112715 | 10 | 352 | 0.0 | 0.0 | 0.00 | 0.00 | 0.00 | 97 | 1014.6 |
| 20260508112212 | 10 | 11 | 0.0 | 0.0 | 0.00 | 0.00 | 0.00 | 97 | 1014.3 |
| 20260508111709 | 9 | 352 | 0.0 | 1.6 | 0.00 | 0.00 | 0.00 | 97 | 1014.5 |
| 20260508111206 | 9 | 312 | 1.6 | 1.6 | 0.00 | 0.00 | 0.00 | 97 | 1014.3 |
| 20260508110704 | 9 | 301 | 0.0 | 0.0 | 0.00 | 0.00 | 0.00 | 97 | 1014.2 |
| 20260508110200 | 8 | 49 | 0.0 | 0.0 | 0.00 | 0.00 | 0.00 | 97 | 1014.1 |
| 20260508105700 | 8 | 322 | 0.0 | 1.6 | 0.00 | 0.00 | 0.00 | 97 | 1014.0 |
| 20260508105157 | 8 | 320 | 0.0 | 0.0 | 0.00 | 0.00 | 0.00 | 97 | 1013.9 |
| 20260508104655 | 8 | 300 | 0.0 | 0.0 | 0.00 | 0.00 | 0.00 | 97 | 1014.0 |
| 20260508104152 | 8 | 337 | 0.0 | 0.0 | 0.00 | 0.00 | 0.00 | 97 | 1013.9 |
| 20260508103649 | 8 | 345 | 0.0 | 0.0 | 0.00 | 0.00 | 0.00 | 97 | 1013.9 |
| 20260508103146 | 8 | 357 | 0.0 | 0.0 | 0.00 | 0.00 | 0.00 | 97 | 1013.6 |
| 20260508102643 | 8 | 16 | 0.0 | 0.0 | 0.00 | 0.00 | 0.00 | 97 | 1013.7 |
| 20260508102141 | 8 | 338 | 0.0 | 0.0 | 0.00 | 0.00 | 0.00 | 97 | 1013.8 |
| 20260508101638 | 8 | 351 | 0.0 | 0.0 | 0.00 | 0.00 | 0.00 | 97 | 1013.6 |
| 20260508101135 | 8 | 30 | 0.0 | 0.0 | 0.00 | 0.00 | 0.00 | 97 | 1013.5 |
| 20260508100633 | 8 | 11 | 0.0 | 0.0 | 0.00 | 0.00 | 0.00 | 97 | 1013.6 |
| 20260508100131 | 9 | 2 | 0.0 | 0.0 | 0.00 | 0.00 | 0.00 | 97 | 1013.3 |
| 20260508095627 | 9 | 17 | 0.0 | 0.0 | 0.00 | 0.00 | 0.00 | 97 | 1013.5 |
| 20260508095124 | 9 | 19 | 0.0 | 0.0 | 0.00 | 0.00 | 0.00 | 97 | 1013.3 |
| 20260508094621 | 9 | 17 | 0.0 | 0.0 | 0.00 | 0.00 | 0.00 | 97 | 1013.2 |
| 20260508094118 | 9 | 17 | 0.0 | 0.0 | 0.00 | 0.00 | 0.00 | 97 | 1013.2 |
| 20260508093615 | 9 | 32 | 0.0 | 0.0 | 0.00 | 0.00 | 0.00 | 97 | 1013.2 |
| 20260508093113 | 9 | 33 | 0.0 | 0.0 | 0.00 | 0.00 | 0.00 | 97 | 1013.1 |
| 20260508092609 | 9 | 30 | 0.0 | 0.0 | 0.00 | 0.00 | 0.00 | 97 | 1012.9 |
| 20260508092108 | 9 | 36 | 0.0 | 0.0 | 0.00 | 0.00 | 0.00 | 97 | 1013.1 |
| 20260508091605 | 9 | 16 | 0.0 | 0.0 | 0.00 | 0.00 | 0.00 | 97 | 1012.7 |
| 20260508091102 | 9 | 16 | 0.0 | 0.0 | 0.00 | 0.00 | 0.00 | 97 | 1013.0 |
| 20260508090600 | 9 | 20 | 0.0 | 0.0 | 0.00 | 0.00 | 0.00 | 97 | 1012.7 |
| 20260508090056 | 9 | 10 | 0.0 | 0.0 | 0.00 | 0.00 | 0.00 | 97 | 1012.8 |
| 20260508085553 | 9 | 19 | 0.0 | 0.0 | 0.00 | 0.00 | 0.00 | 97 | 1012.6 |
| 20260508085050 | 9 | 352 | 0.0 | 0.0 | 0.00 | 0.00 | 0.00 | 97 | 1012.8 |
| 20260508084547 | 9 | 354 | 0.0 | 0.0 | 0.00 | 0.00 | 0.00 | 97 | 1012.8 |
| 20260508084044 | 9 | 347 | 0.0 | 0.0 | 0.00 | 0.00 | 0.00 | 97 | 1012.7 |
| 20260508083541 | 9 | 347 | 0.0 | 0.0 | 0.00 | 0.00 | 0.00 | 97 | 1012.6 |
| 20260508083038 | 9 | 347 | 0.0 | 0.0 | 0.00 | 0.00 | 0.00 | 97 | 1012.7 |
| 20260508082534 | 10 | 32 | 0.0 | 0.0 | 0.00 | 0.00 | 0.00 | 97 | 1012.5 |
| 20260508082031 | 10 | 32 | 0.0 | 0.0 | 0.00 | 0.00 | 0.00 | 97 | 1012.5 |
| 20260508081529 | 10 | 42 | 0.0 | 0.0 | 0.00 | 0.00 | 0.00 | 97 | 1012.6 |
| 20260508081024 | 10 | 42 | 0.0 | 0.0 | 0.00 | 0.00 | 0.00 | 97 | 1012.3 |
| 20260508080523 | 10 | 42 | 0.0 | 0.0 | 0.00 | 0.00 | 0.00 | 97 | 1012.3 |
| 20260508080020 | 10 | 42 | 0.0 | 0.0 | 0.00 | 0.00 | 0.00 | 97 | 1012.4 |
| 20260508075516 | 10 | 42 | 0.0 | 0.0 | 0.00 | 0.00 | 0.00 | 96 | 1012.2 |
| 20260508075014 | 10 | 42 | 0.0 | 0.0 | 0.00 | 0.00 | 0.00 | 96 | 1012.3 |
| 20260508074512 | 10 | 42 | 0.0 | 0.0 | 0.00 | 0.00 | 0.00 | 96 | 1012.3 |
| 20260508074008 | 10 | 43 | 0.0 | 0.0 | 0.00 | 0.00 | 0.00 | 96 | 1012.0 |
| 20260508073505 | 10 | 54 | 0.0 | 0.0 | 0.00 | 0.00 | 0.00 | 96 | 1012.1 |
| 20260508073003 | 10 | 42 | 0.0 | 0.0 | 0.00 | 0.00 | 0.00 | 96 | 1012.3 |
| 20260508072458 | 10 | 26 | 0.0 | 0.0 | 0.00 | 0.00 | 0.00 | 96 | 1012.3 |
| 20260508071956 | 10 | 353 | 0.0 | 0.0 | 0.00 | 0.00 | 0.00 | 96 | 1012.4 |
| 20260508071454 | 10 | 353 | 0.0 | 0.0 | 0.00 | 0.00 | 0.00 | 96 | 1012.4 |
| 20260508070951 | 10 | 348 | 0.0 | 0.0 | 0.00 | 0.00 | 0.00 | 96 | 1012.2 |
| 20260508070449 | 10 | 357 | 0.0 | 0.0 | 0.00 | 0.00 | 0.00 | 96 | 1012.1 |
| 20260508065947 | 10 | 353 | 0.0 | 0.0 | 0.00 | 0.00 | 0.00 | 96 | 1012.4 |
| 20260508065444 | 10 | 352 | 0.0 | 0.0 | 0.00 | 0.00 | 0.00 | 96 | 1012.2 |
| 20260508064942 | 10 | 352 | 0.0 | 0.0 | 0.00 | 0.00 | 0.00 | 96 | 1012.2 |
| 20260508064439 | 10 | 352 | 0.0 | 0.0 | 0.00 | 0.00 | 0.00 | 96 | 1012.1 |
| 20260508063937 | 10 | 353 | 0.0 | 0.0 | 0.00 | 0.00 | 0.00 | 96 | 1011.9 |
| 20260508063434 | 10 | 333 | 0.0 | 0.0 | 0.00 | 0.00 | 0.00 | 96 | 1012.1 |
| 20260508062932 | 10 | 350 | 0.0 | 0.0 | 0.00 | 0.00 | 0.00 | 96 | 1011.9 |
| 20260508062429 | 10 | 306 | 0.0 | 0.0 | 0.00 | 0.00 | 0.00 | 96 | 1012.1 |
| 20260508061926 | 10 | 305 | 0.0 | 0.0 | 0.00 | 0.00 | 0.00 | 96 | 1011.8 |
| 20260508061424 | 10 | 348 | 0.0 | 0.0 | 0.00 | 0.00 | 0.00 | 96 | 1011.6 |
| 20260508060920 | 10 | 348 | 0.0 | 0.0 | 0.00 | 0.00 | 0.00 | 96 | 1011.7 |
| 20260508060418 | 10 | 347 | 0.0 | 0.0 | 0.00 | 0.00 | 0.00 | 96 | 1011.7 |
| 20260508055913 | 10 | 4 | 0.0 | 0.0 | 0.00 | 0.00 | 0.00 | 96 | 1011.3 |
| 20260508055410 | 10 | 77 | 0.0 | 0.0 | 0.00 | 0.00 | 0.00 | 96 | 1011.5 |
| 20260508054906 | 10 | 33 | 0.0 | 0.0 | 0.00 | 0.00 | 0.00 | 96 | 1011.6 |
| 20260508054404 | 10 | 33 | 0.0 | 0.0 | 0.00 | 0.00 | 0.00 | 96 | 1011.4 |
| 20260508053901 | 10 | 33 | 0.0 | 0.0 | 0.00 | 0.00 | 0.00 | 96 | 1011.7 |
| 20260508053358 | 10 | 33 | 0.0 | 0.0 | 0.00 | 0.00 | 0.00 | 96 | 1011.5 |
| 20260508052855 | 10 | 72 | 0.0 | 0.0 | 0.00 | 0.00 | 0.00 | 96 | 1011.3 |
| 20260508052353 | 10 | 72 | 0.0 | 0.0 | 0.00 | 0.00 | 0.00 | 96 | 1011.4 |
| 20260508051849 | 10 | 72 | 0.0 | 0.0 | 0.00 | 0.00 | 0.00 | 96 | 1011.4 |
| 20260508051344 | 10 | 72 | 0.0 | 0.0 | 0.00 | 0.00 | 0.00 | 96 | 1011.2 |
| 20260508050841 | 10 | 72 | 0.0 | 0.0 | 0.00 | 0.00 | 0.00 | 96 | 1011.4 |
| 20260508050338 | 10 | 72 | 0.0 | 0.0 | 0.00 | 0.00 | 0.00 | 96 | 1011.2 |
| 20260508045833 | 10 | 16 | 0.0 | 0.0 | 0.00 | 0.00 | 0.00 | 96 | 1011.6 |
| 20260508045332 | 10 | 31 | 0.0 | 0.0 | 0.00 | 0.00 | 0.00 | 96 | 1011.3 |
| 20260508044829 | 10 | 9 | 0.0 | 0.0 | 0.00 | 0.00 | 0.00 | 96 | 1011.5 |
| 20260508044325 | 10 | 8 | 0.0 | 0.0 | 0.00 | 0.00 | 0.00 | 96 | 1011.3 |
| 20260508043821 | 10 | 11 | 0.0 | 0.0 | 0.00 | 0.00 | 0.00 | 96 | 1011.2 |
| 20260508043319 | 10 | 18 | 0.0 | 0.0 | 0.00 | 0.00 | 0.00 | 96 | 1011.2 |